Date String (YYYY-MM-DD hh:mm:ss) UTC,Instrument flags,absolute air pressure of the measurement (hPa),sample flow rate (lpm),inlet stack bypass flow (lpm),air temperature of the measurement (°C),ambient temperature measured by the external sensor (°C),aerosol sample conditioner tube jacket temperature (°C),OPC LED temperature (°C),internal box temperature (°C),relative humidity of the measurement (%),span deviation,mass concentration of particles derived from Lorenz-Mie calculation of OPC scattering (μg/m³),mass concentration of particles derived from Lorenz-Mie calculation of OPC scattering (μg/m³),mass concentration of particles derived from Lorenz-Mie calculation of OPC scattering (μg/m³)
DateTimeUTC,F1_M11,P_M11,Q1_M11,Q2_M11,T1_M11,T2_M11,T3_M11,T4_M11,T5_M11,U1_M11,ZSPAN_M11,X2_M11,X0_M11,X1_M11
2024-05-31 14:00:00,SystemResetWarning,0833.8,5.00,000.00,029.7,028.9,000.0,038.3,031.5,023.6,0000.0,0003.95,0008.83,0003.28
2024-05-31 14:01:00,SystemResetWarning,0833.8,5.00,000.00,029.7,028.9,000.0,038.3,031.5,023.7,0000.0,0003.94,0009.14,0003.28
2024-05-31 14:02:00,SystemResetWarning,0833.8,4.99,000.00,029.7,028.9,000.0,038.3,031.5,023.8,0000.0,0003.91,0009.13,0003.28
2024-05-31 14:03:00,SystemResetWarning,0833.8,5.00,000.00,029.7,028.9,000.0,038.2,031.5,023.7,0000.0,0003.85,0008.59,0003.28
2024-05-31 14:04:00,SystemResetWarning,0833.8,5.01,000.00,029.7,028.9,000.0,038.2,031.5,023.7,0000.0,0003.83,0008.52,0003.28
2024-05-31 14:05:00,SystemResetWarning,0833.8,5.01,000.00,029.7,028.9,000.0,038.2,031.5,023.9,0000.0,0003.84,0009.00,0003.30
2024-05-31 14:06:00,SystemResetWarning,0833.8,5.00,000.00,029.7,028.9,000.0,038.2,031.5,024.0,0000.0,0003.84,0009.13,0003.30
2024-05-31 14:07:00,SystemResetWarning,0833.7,4.99,000.00,029.7,028.9,000.0,038.2,031.5,024.1,0000.0,0003.86,0010.16,0003.30
2024-05-31 14:08:00,SystemResetWarning,0833.8,5.00,000.00,029.7,028.9,000.0,038.2,031.5,024.1,0000.0,0003.86,0010.53,0003.29
2024-05-31 14:09:00,SystemResetWarning,0833.7,4.99,000.00,029.7,028.9,000.0,038.2,031.5,023.9,0000.0,0003.84,0010.35,0003.29
2024-05-31 14:10:00,SystemResetWarning,0833.7,5.00,000.00,029.7,028.9,000.0,038.2,031.5,023.7,0000.0,0003.89,0010.52,0003.30
2024-05-31 14:11:00,SystemResetWarning,0833.8,5.00,000.00,029.7,028.9,000.0,038.2,031.5,023.6,0000.0,0003.92,0010.33,0003.32
2024-05-31 14:12:00,SystemResetWarning,0833.7,5.01,000.00,029.7,028.9,000.0,038.2,031.5,023.5,0000.0,0003.92,0010.24,0003.32
2024-05-31 14:13:00,SystemResetWarning,0833.8,5.00,000.00,029.7,028.9,000.0,038.2,031.5,023.6,0000.0,0003.93,0010.04,0003.33
2024-05-31 14:14:00,SystemResetWarning,0833.8,4.99,000.00,029.7,028.9,000.0,038.2,031.5,023.7,0000.0,0004.00,0010.59,0003.35
2024-05-31 14:15:00,SystemResetWarning,0833.7,4.99,000.00,029.7,028.9,000.0,038.2,031.5,023.6,0000.0,0004.02,0011.73,0003.34
2024-05-31 14:16:00,SystemResetWarning,0833.8,4.99,000.00,029.7,028.9,000.0,038.2,031.5,023.6,0000.0,0004.02,0011.21,0003.34
2024-05-31 14:17:00,SystemResetWarning,0833.7,5.00,000.00,029.7,028.9,000.0,038.2,031.5,023.7,0000.0,0004.04,0011.24,0003.34
2024-05-31 14:18:00,SystemResetWarning,0833.8,5.00,000.00,029.7,028.8,000.0,038.2,031.5,023.6,0000.0,0004.06,0010.81,0003.35
2024-05-31 14:19:00,SystemResetWarning,0833.8,5.01,000.00,029.7,028.8,000.0,038.2,031.5,023.4,0000.0,0004.06,0010.44,0003.36
2024-05-31 14:20:00,SystemResetWarning,0833.8,5.01,000.00,029.7,028.8,000.0,038.2,031.5,023.4,0000.0,0004.04,0010.44,0003.37
2024-05-31 14:21:00,SystemResetWarning,0833.8,5.00,000.00,029.7,028.8,000.0,038.2,031.5,023.4,0000.0,0003.99,0010.21,0003.37
2024-05-31 14:22:00,SystemResetWarning,0833.9,4.99,000.00,029.7,028.8,000.0,038.2,031.5,023.6,0000.0,0003.96,0010.29,0003.38
2024-05-31 14:23:00,SystemResetWarning,0833.8,5.00,000.00,029.7,028.8,000.0,038.2,031.5,023.8,0000.0,0003.97,0010.39,0003.37
2024-05-31 14:24:00,SystemResetWarning,0833.8,4.99,000.00,029.7,028.8,000.0,038.2,031.5,023.9,0000.0,0003.98,0010.36,0003.35
2024-05-31 14:25:00,SystemResetWarning,0833.8,5.01,000.00,029.7,028.8,000.0,038.2,031.5,023.7,0000.0,0003.96,0009.97,0003.34
2024-05-31 14:26:00,SystemResetWarning,0833.9,5.01,000.00,029.7,028.8,000.0,038.2,031.5,023.7,0000.0,0003.94,0009.13,0003.33
2024-05-31 14:27:00,SystemResetWarning,0833.8,5.00,000.00,029.7,028.8,000.0,038.2,031.5,023.6,0000.0,0003.94,0009.13,0003.32
2024-05-31 14:28:00,SystemResetWarning,0833.8,4.99,000.00,029.7,028.8,000.0,038.2,031.4,023.5,0000.0,0003.95,0009.02,0003.33
2024-05-31 14:29:00,SystemResetWarning,0833.9,5.00,000.00,029.7,028.8,000.0,038.2,031.4,023.5,0000.0,0003.92,0008.49,0003.32
2024-05-31 14:30:00,SystemResetWarning,0833.9,5.00,000.00,029.7,028.8,000.0,038.2,031.4,023.5,0000.0,0003.93,0008.52,0003.31
2024-05-31 14:31:00,SystemResetWarning,0833.9,5.01,000.00,029.7,028.8,000.0,038.2,031.4,023.4,0000.0,0003.95,0008.41,0003.30
2024-05-31 14:32:00,SystemResetWarning,0833.9,5.00,000.00,029.7,028.8,000.0,038.2,031.4,023.3,0000.0,0003.93,0008.40,0003.28
2024-05-31 14:33:00,SystemResetWarning,0833.8,5.01,000.00,029.7,028.8,000.0,038.2,031.5,023.3,0000.0,0003.95,0008.86,0003.26
2024-05-31 14:34:00,SystemResetWarning,0833.8,5.00,000.00,029.7,028.8,000.0,038.2,031.5,023.3,0000.0,0003.99,0008.82,0003.26
2024-05-31 14:35:00,SystemResetWarning,0833.8,4.99,000.00,029.7,028.8,000.0,038.2,031.4,023.5,0000.0,0003.98,0008.91,0003.27
2024-05-31 14:36:00,SystemResetWarning,0833.8,4.99,000.00,029.7,028.8,000.0,038.2,031.4,023.7,0000.0,0003.94,0008.96,0003.27
2024-05-31 14:37:00,SystemResetWarning,0833.9,5.00,000.00,029.7,028.8,000.0,038.2,031.5,023.7,0000.0,0003.93,0009.04,0003.27
2024-05-31 14:38:00,SystemResetWarning,0833.8,5.00,000.00,029.7,028.8,000.0,038.2,031.4,023.6,0000.0,0003.89,0008.90,0003.27
2024-05-31 14:39:00,SystemResetWarning,0833.8,5.01,000.00,029.7,028.8,000.0,038.2,031.4,023.5,0000.0,0003.90,0008.84,0003.27
2024-05-31 14:40:00,SystemResetWarning,0833.8,5.00,000.00,029.7,028.8,000.0,038.2,031.4,023.5,0000.0,0003.91,0008.84,0003.28
2024-05-31 14:41:00,SystemResetWarning,0833.8,5.00,000.00,029.7,028.8,000.0,038.2,031.4,023.7,0000.0,0003.96,0009.02,0003.28
2024-05-31 14:42:00,SystemResetWarning,0833.8,5.00,000.00,029.7,028.8,000.0,038.2,031.4,023.7,0000.0,0003.95,0009.64,0003.28
2024-05-31 14:43:00,SystemResetWarning,0833.8,4.98,000.00,029.7,028.8,000.0,038.2,031.4,023.5,0000.0,0003.97,0010.15,0003.28
2024-05-31 14:44:00,SystemResetWarning,0833.8,4.99,000.00,029.7,028.8,000.0,038.2,031.4,023.3,0000.0,0003.96,0011.70,0003.28
2024-05-31 14:45:00,SystemResetWarning,0833.8,5.01,000.00,029.7,028.8,000.0,038.2,031.4,023.3,0000.0,0003.93,0011.37,0003.27
2024-05-31 14:46:00,SystemResetWarning,0833.8,5.02,000.00,029.7,028.8,000.0,038.2,031.4,023.4,0000.0,0003.90,0011.55,0003.27
2024-05-31 14:47:00,SystemResetWarning,0833.8,4.99,000.00,029.6,028.8,000.0,038.2,031.4,023.4,0000.0,0003.91,0011.77,0003.26
2024-05-31 14:48:00,SystemResetWarning,0833.8,4.99,000.00,029.7,028.8,000.0,038.2,031.4,023.4,0000.0,0003.88,0011.32,0003.25
2024-05-31 14:49:00,SystemResetWarning,0833.8,5.00,000.00,029.7,028.8,000.0,038.2,031.4,023.2,0000.0,0003.86,0011.38,0003.24
2024-05-31 14:50:00,SystemResetWarning,0833.8,5.00,000.00,029.7,028.8,000.0,038.2,031.4,023.2,0000.0,0003.87,0012.96,0003.23
2024-05-31 14:51:00,SystemResetWarning,0833.8,5.00,000.00,029.7,028.8,000.0,038.2,031.4,023.3,0000.0,0003.88,0013.71,0003.23
2024-05-31 14:52:00,SystemResetWarning,0833.7,5.00,000.00,029.7,028.8,000.0,038.2,031.4,023.1,0000.0,0003.85,0013.52,0003.23
2024-05-31 14:53:00,SystemResetWarning,0833.7,5.00,000.00,029.7,028.8,000.0,038.2,031.4,022.8,0000.0,0003.86,0013.60,0003.25
2024-05-31 14:54:00,SystemResetWarning,0833.7,5.00,000.00,029.6,028.8,000.0,038.2,031.4,022.7,0000.0,0003.91,0014.05,0003.28
2024-05-31 14:55:00,SystemResetWarning,0833.7,5.01,000.00,029.6,028.8,000.0,038.2,031.4,022.9,0000.0,0003.96,0012.15,0003.30
2024-05-31 14:56:00,SystemResetWarning,0833.7,5.00,000.00,029.6,028.8,000.0,038.2,031.4,023.1,0000.0,0004.04,0011.96,0003.32
2024-05-31 14:57:00,SystemResetWarning,0833.7,5.00,000.00,029.6,028.7,000.0,038.2,031.4,023.1,0000.0,0004.08,0011.83,0003.34
2024-05-31 14:58:00,SystemResetWarning,0833.7,5.00,000.00,029.6,028.7,000.0,038.2,031.4,022.8,0000.0,0004.12,0011.41,0003.35
2024-05-31 14:59:00,SystemResetWarning,0833.7,5.00,000.00,029.6,028.7,000.0,038.1,031.4,022.9,0000.0,0004.17,0011.98,0003.38
